McCook, NE

5:46 PM CDT on July 23, 2016 (GMT -0500)
McCook Municipal

Weather History for KMCK - December, 2013

Change the Weather History Date:

Sunday, December 15, 2013

  Actual Average Record
Temperature  
Mean Temperature 42 °F 28 °F  
Max Temperature 59 °F 41 °F 66 °F (2002)
Min Temperature 25 °F 15 °F -16 °F (1989)
Degree Days  
Heating Degree Days 24    
Moisture  
Dew Point 21 °F    
Average Humidity 51    
Maximum Humidity 75    
Minimum Humidity 26    
Precipitation  
Precipitation 0.00 in 0.02 in 0.50 in (1956)
Month to date precipitation T 0.32  
Year to date precipitation 12.61 22.21  
Sea Level Pressure  
Sea Level Pressure 30.10 in    
Wind  
Wind Speed 13 mph (West)    
Max Wind Speed 22 mph    
Max Gust Speed 30 mph    
Visibility 10 miles    
Events      
T = Trace of Precipitation, MM = Missing Value Source: NWS Daily Summary

Daily Weather History Graph

Daily Weather History Graph

Search for Another Location

Airport or City:

Trip Planner

Search our weather history database for the weather conditions in past years. The results will help you decide how hot, cold, wet, or windy it might be!

Date:

Astronomy

Dec. 15, 2013 Rise Set
Actual Time 7:57 AM CST 5:17 PM CST
Civil Twilight 7:27 AM CST 5:48 PM CST
Nautical Twilight 6:53 AM CST 6:22 PM CST
Astronomical Twilight 6:20 AM CST 6:55 PM CST
Moon 4:23 PM CST (12/15) 6:15 AM CST (12/15)
Length of Visible Light 10h 20m
Length of Day
9h 19m
Waxing Gibbous, 98% of the Moon is Illuminated
Dec 15
Waxing Gibbous
Dec 17
Full
Dec 25
Last Quarter
Jan 1
New
Jan 7
First Quarter

Hourly Weather History & Observations

Time (CST) Temp. Windchill Dew Point Humidity Pressure Visibility Wind Dir Wind Speed Gust Speed Precip Events Conditions
12:53 AM 28.9 °F 17.3 °F 17.1 °F 61% 30.17 in 10.0 mi West 16.1 mph - N/A   Clear
1:53 AM 28.0 °F 17.5 °F 18.0 °F 66% 30.17 in 10.0 mi West 12.7 mph - N/A   Mostly Cloudy
2:53 AM 30.9 °F 21.7 °F 18.0 °F 59% 30.16 in 10.0 mi West 11.5 mph - N/A   Overcast
3:53 AM 30.9 °F 21.2 °F 19.0 °F 61% 30.16 in 10.0 mi WSW 12.7 mph - N/A   Overcast
4:53 AM 30.0 °F 19.5 °F 18.0 °F 61% 30.15 in 10.0 mi WSW 13.8 mph - N/A   Overcast
5:53 AM 27.0 °F 15.2 °F 17.1 °F 66% 30.16 in 10.0 mi WSW 15.0 mph - N/A   Clear
6:53 AM 25.0 °F - 18.0 °F 75% 30.17 in 10.0 mi North - - N/A   Clear
7:53 AM 28.0 °F 18.6 °F 18.0 °F 66% 30.16 in 10.0 mi West 10.4 mph - N/A   Clear
8:53 AM 30.0 °F 20.5 °F 19.9 °F 66% 30.17 in 10.0 mi WSW 11.5 mph - N/A   Clear
9:53 AM 39.0 °F 31.8 °F 21.9 °F 50% 30.16 in 10.0 mi West 11.5 mph - N/A   Clear
10:53 AM 46.0 °F 39.6 °F 24.1 °F 42% 30.14 in 10.0 mi West 15.0 mph - N/A   Clear
11:53 AM 53.1 °F - 24.1 °F 32% 30.09 in 10.0 mi WNW 18.4 mph - N/A   Clear
12:53 PM 55.0 °F - 23.0 °F 29% 30.06 in 10.0 mi West 20.7 mph 26.5 mph N/A   Clear
1:53 PM 57.0 °F - 23.0 °F 27% 30.05 in 10.0 mi WNW 21.9 mph 29.9 mph N/A   Clear
2:53 PM 57.9 °F - 23.0 °F 26% 30.02 in 10.0 mi WNW 17.3 mph 24.2 mph N/A   Clear
3:53 PM 57.0 °F - 23.0 °F 27% 30.02 in 10.0 mi West 11.5 mph - N/A   Clear
4:53 PM 54.0 °F - 24.1 °F 31% 30.02 in 10.0 mi West 8.1 mph - N/A   Clear
5:53 PM 48.9 °F - 23.0 °F 36% 30.04 in 10.0 mi West 9.2 mph - N/A   Clear
6:53 PM 41.0 °F 35.2 °F 21.9 °F 47% 30.07 in 10.0 mi SW 9.2 mph - N/A   Clear
7:53 PM 39.0 °F 34.0 °F 21.9 °F 50% 30.07 in 10.0 mi WSW 6.9 mph - N/A   Clear
8:53 PM 36.0 °F 29.0 °F 21.9 °F 57% 30.08 in 10.0 mi West 9.2 mph - N/A   Clear
9:53 PM 34.0 °F 26.6 °F 21.9 °F 61% 30.07 in 10.0 mi West 9.2 mph - N/A   Clear
10:53 PM 33.1 °F 24.9 °F 21.0 °F 61% 30.07 in 10.0 mi West 10.4 mph - N/A   Clear
11:53 PM 35.1 °F 27.4 °F 21.0 °F 57% 30.04 in 10.0 mi West 10.4 mph - N/A   Clear